Location: Byhalia Creek
(34.8270°N, 89.8040°W)
Time: 18:49:27
(UTC+00:00)

Terra - Pass Details

Date: 22 April 2026
Orbit: 688 x 691 km, 97.9° (Epoch: 9 May)

Event Time Altitude Azimuth Distance (km) Brightness Sun altitude
Exits shadow 01:27:27 14° 103° (ESE) 1,882 3.4 -10.7°
Maximum altitude 01:29:45 19° 68° (ENE) 1,605 3.3 -11.1°
Drops below altitude 10° 01:33:02 10° 23° (NNE) 2,142 4.3 -11.7°
Sets 01:35:49 0° 6° (N) 3,063 5.4 -12.3°
